Powrót do katalogu

STARLINK-34983

AktywnyŁącznośćVLEO
NORAD 65411·PAYLOAD·🇺🇸 United States

Wystrzelony Aug 31, 2025 z Cape Canaveral Space Force Station

Loading…

Następne Przeloty (najbliższe 24 godziny)

TLE

ŚwieżeSource: CelesTrak SupGP

Epoka: Sep 14, 2026, 20:56 UTC

1 65411C 25192H   26257.87270833  .00008299  00000+0  26695-3 0  2571
2 65411  53.1594  71.8813 0001191  77.1432 276.0081 15.31689781    14

Śledź STARLINK-34983 w czasie rzeczywistym z AllMySat

Download on the App Store